Location: *
(43.4667°N, 11.6833°E)
Time: 09:58:10
(UTC+00:00)

Cosmos 1869 Rocket - Pass Details

Date: 19 July 2019
Orbit: 604 x 634 km, 82.5° (Epoch: 20 August)

Event Time Altitude Azimuth Distance (km) Brightness Sun altitude
Exits shadow 23:15:57 67° 321° (NW) 676 3.8 -25.8°
Drops below altitude 10° 23:19:57 10° 4° (N) 1,987 7.2 -25.8°
Sets 23:22:11 0° 7° (N) 2,892 8.3 -25.8°
